EW3206 Weather Reports


time (UTC)temp
C
wind
direction
speed
KPH
gust
KPH
rain 1hr
cm
rain 24hr
cm
rain mn
cm
humidity
%
barometer
mb
20260503004309 13 113 0.0 6.4 0.23 0.58 0.58 86 10.3
20260503003309 13 79 0.0 4.8 0.23 0.58 0.58 86 10.4
20260503002309 13 124 1.6 8.0 0.18 0.51 0.51 86 10.6
20260503001309 13 157 1.6 3.2 0.13 0.46 0.46 86 11.0
20260502235309 13 149 0.0 3.2 0.03 0.36 0.36 85 11.2
20260502234309 13 111 3.2 16.1 0.00 0.33 0.33 85 10.6
20260502233309 13 83 1.6 11.3 0.03 0.33 0.33 85 11.0
20260502232309 13 117 0.0 16.1 0.10 0.33 0.33 85 11.3
20260502231309 13 128 3.2 11.3 0.20 0.33 0.33 85 11.5
20260502225309 14 150 1.6 9.7 0.33 0.33 0.33 84 12.0
20260502224309 14 38 1.6 8.0 0.33 0.33 0.33 83 11.9
20260502223309 14 351 0.0 1.6 0.30 0.33 0.33 83 12.2
20260502222309 14 349 1.6 8.0 0.23 0.23 0.23 82 12.4
20260502221309 15 5 3.2 14.5 0.13 0.15 0.15 80 12.5
20260502220313 15 290 8.0 19.3 0.03 0.05 0.05 77 13.0
20260502215309 16 250 12.9 40.2 0.03 0.03 0.03 72 13.3
20260502214309 16 284 11.3 22.5 0.00 0.00 0.00 65 13.1
20260502212309 16 119 0.0 6.4 0.00 0.00 0.00 63 11.7
20260502211310 16 90 0.0 6.4 0.00 0.00 0.00 63 11.3
20260502210309 16 76 0.0 9.7 0.00 0.00 0.00 62 11.5
20260502205310 17 85 1.6 11.3 0.00 0.00 0.00 62 11.6
20260502204309 17 81 3.2 11.3 0.00 0.00 0.00 61 11.7
20260502203309 17 67 3.2 11.3 0.00 0.00 0.00 61 12.2
20260502202309 17 141 4.8 14.5 0.00 0.00 0.00 60 12.5
20260502201309 17 59 9.7 19.3 0.00 0.00 0.00 59 12.1
20260502194309 18 67 1.6 12.9 0.00 0.00 0.00 60 12.4
20260502193310 19 38 4.8 14.5 0.00 0.00 0.00 60 12.4
20260502192310 20 76 3.2 9.7 0.00 0.00 0.00 60 12.5
20260502191309 20 77 0.0 6.4 0.00 0.00 0.00 59 12.4
20260502184310 21 22 0.0 4.8 0.00 0.00 0.00 57 12.5
20260502164310 23 346 1.6 8.0 0.00 0.00 0.00 54 13.0
20260502163309 24 304 1.6 9.7 0.00 0.00 0.00 53 13.3
20260502162309 24 319 0.0 8.0 0.00 0.00 0.00 53 13.5
20260502152309 24 290 1.6 14.5 0.00 0.00 0.00 53 14.2
20260502151309 25 300 1.6 9.7 0.00 0.00 0.00 52 14.4
20260502123309 23 284 4.8 17.7 0.00 0.00 0.00 54 15.7
20260502122309 23 259 4.8 16.1 0.00 0.00 0.00 55 15.8
20260502121309 23 227 4.8 17.7 0.00 0.00 0.00 55 15.7
20260502115309 23 305 0.0 19.3 0.00 0.00 0.00 57 15.9
20260502113309 23 278 4.8 20.9 0.00 0.00 0.00 53 16.1
20260502111309 23 269 3.2 17.7 0.00 0.00 0.00 55 16.4
20260502105309 23 240 3.2 14.5 0.00 0.00 0.00 55 16.3
20260502104310 22 239 1.6 11.3 0.00 0.00 0.00 55 16.4
20260502102309 22 290 1.6 14.5 0.00 0.00 0.00 57 16.5
20260502101309 21 268 1.6 14.5 0.00 0.00 0.00 58 16.5
20260502091310 22 284 3.2 12.9 0.00 0.00 0.00 55 16.6
20260502071311 13 216 0.0 8.0 0.00 0.00 0.00 59 16.9
20260502065309 13 213 0.0 0.0 0.00 0.00 0.00 58 16.5
20260502064309 13 213 0.0 1.6 0.00 0.00 0.00 58 16.6
20260502063309 13 246 0.0 1.6 0.00 0.00 0.00 60 16.6
20260502062309 13 208 0.0 0.0 0.00 0.00 0.00 60 16.5
20260502061309 12 206 0.0 1.6 0.00 0.00 0.00 60 16.6
20260502055309 12 219 0.0 3.2 0.00 0.00 0.00 61 16.9
20260502054309 11 205 0.0 3.2 0.00 0.00 0.00 62 16.7
20260502053309 11 213 0.0 4.8 0.00 0.00 0.00 64 16.7
20260502051309 10 159 0.0 3.2 0.00 0.00 0.00 70 16.4
20260502045309 9 160 0.0 0.0 0.00 0.00 0.00 69 16.4
20260502044309 9 159 0.0 0.0 0.00 0.00 0.00 68 16.6
20260502043309 9 160 0.0 0.0 0.00 0.00 0.00 68 16.6
20260502042310 9 128 0.0 1.6 0.00 0.00 0.00 68 16.5
20260502041309 9 138 0.0 0.0 0.00 0.00 0.00 67 16.5
20260502035310 9 133 0.0 1.6 0.00 0.00 0.00 65 16.6
20260502034309 9 132 0.0 0.0 0.00 0.00 0.00 65 16.6
20260502033309 10 132 0.0 1.6 0.00 0.00 0.00 64 16.7
20260502032309 10 163 0.0 0.0 0.00 0.00 0.00 64 16.6
20260502031309 10 163 0.0 0.0 0.00 0.00 0.00 63 16.7
20260502025309 10 163 0.0 0.0 0.00 0.00 0.00 64 16.8
20260502024309 10 164 0.0 0.0 0.00 0.00 0.00 63 16.8
20260502023310 10 164 0.0 0.0 0.00 0.00 0.00 63 17.0
20260502014311 11 146 0.0 0.0 0.00 0.00 0.00 63 17.3
20260502013313 11 146 0.0 0.0 0.00 0.00 0.00 63 17.4
20260502012309 11 145 0.0 0.0 0.00 0.00 0.00 63 17.4
20260502011309 11 146 0.0 0.0 0.00 0.00 0.00 62 17.6
20260502005311 11 154 0.0 0.0 0.00 0.00 0.00 62 17.9